20050708,000015,790321,33.675963,-118.283753,18.586,33.482,0.563,0.877
20050708,000045,790350,33.676170,-118.285387,18.594,33.479,0.547,0.839
20050708,000114,790380,33.676375,-118.286960,18.593,33.483,0.541,0.825
20050708,000145,790411,33.676583,-118.288655,18.596,33.482,0.541,0.826
20050708,000215,790441,33.676790,-118.290295,18.608,33.476,0.552,0.848
20050708,000245,790471,33.676998,-118.291925,18.602,33.485,0.547,0.836
20050708,000314,790500,33.677188,-118.293503,18.597,33.487,0.552,0.850
20050708,000345,790530,33.677418,-118.295203,18.595,33.486,0.541,0.820
20050708,000414,790560,33.677605,-118.296867,18.585,33.489,0.552,0.847
20050708,000445,790591,33.677818,-118.298510,18.570,33.495,0.552,0.844
20050708,000514,790619,33.678083,-118.300077,18.550,33.499,0.547,0.832
20050708,000545,790651,33.678551,-118.301697,18.521,33.499,0.547,0.835
20050708,000615,790680,33.679011,-118.303258,18.542,33.472,0.552,0.844
20050708,000645,790710,33.679471,-118.304820,18.563,33.470,0.552,0.844
20050708,000715,790741,33.679936,-118.306395,18.556,33.483,0.552,0.845
20050708,000745,790771,33.680415,-118.307965,18.538,33.491,0.563,0.864
20050708,000815,790801,33.680891,-118.309538,18.525,33.489,0.552,0.842
20050708,000845,790831,33.681373,-118.311113,18.541,33.477,0.569,0.876
20050708,000915,790860,33.681841,-118.312700,18.550,33.475,0.569,0.877
20050708,000945,790890,33.682321,-118.314282,18.561,33.475,0.563,0.864
20050708,001015,790921,33.682821,-118.315920,18.571,33.475,0.574,0.888
20050708,001045,790951,33.683286,-118.317437,18.575,33.477,0.585,0.909
20050708,001115,790981,33.683761,-118.319013,18.570,33.485,0.602,0.942
20050708,001145,791010,33.684255,-118.320605,18.565,33.485,0.618,0.983
20050708,001215,791040,33.684765,-118.322252,18.544,33.495,0.618,0.978
20050708,001245,791071,33.685240,-118.323797,18.519,33.500,0.618,0.980
20050708,001315,791101,33.685723,-118.325347,18.503,33.496,0.624,0.992
20050708,001345,791131,33.686225,-118.326982,18.527,33.472,0.646,1.041
20050708,001415,791161,33.686703,-118.328573,18.526,33.483,0.635,1.014
20050708,001445,791190,33.687166,-118.330132,18.499,33.500,0.629,1.001
20050708,001515,791220,33.687651,-118.331710,18.494,33.488,0.624,0.982
20050708,001545,791251,33.688133,-118.333307,18.503,33.481,0.629,0.996
20050708,001616,791281,33.688613,-118.334913,18.515,33.477,0.629,1.001
20050708,001645,791311,33.689105,-118.336522,18.548,33.463,0.618,0.973
20050708,001715,791341,33.689598,-118.338128,18.570,33.469,0.624,0.973
20050708,001745,791370,33.690106,-118.339782,18.570,33.480,0.624,0.987
20050708,001815,791400,33.690573,-118.341332,18.557,33.492,0.629,0.997
20050708,001845,791431,33.691071,-118.342992,18.544,33.491,0.624,0.987
20050708,001915,791461,33.691541,-118.344542,18.548,33.486,0.629,1.000
20050708,001945,791491,33.692028,-118.346153,18.556,33.480,0.640,1.025
20050708,002015,791520,33.692521,-118.347765,18.588,33.468,0.646,1.023
20050708,002045,791550,33.693011,-118.349388,18.566,33.496,0.656,1.069
20050708,002115,791581,33.693513,-118.351057,18.548,33.499,0.656,1.066
20050708,002145,791611,33.693991,-118.352625,18.542,33.493,0.662,1.080
20050708,002215,791641,33.694471,-118.354210,18.528,33.495,0.656,1.048
20050708,002245,791671,33.694958,-118.355810,18.515,33.495,0.662,1.024
20050708,002316,791702,33.695458,-118.357473,18.529,33.480,0.662,1.097
20050708,002345,791730,33.695910,-118.359023,18.540,33.475,0.673,1.032
20050708,002415,791761,33.696395,-118.360637,18.579,33.460,0.673,0.961
20050708,002445,791791,33.696895,-118.362262,18.602,33.467,0.678,0.967
20050708,002515,791821,33.697380,-118.363897,18.630,33.467,0.678,1.033
20050708,002545,791851,33.697878,-118.365547,18.630,33.482,0.689,1.068
20050708,002616,791882,33.698396,-118.367245,18.614,33.494,0.695,1.101
20050708,002645,791911,33.698880,-118.368848,18.613,33.485,0.700,1.022
20050708,002716,791941,33.699396,-118.370562,18.623,33.479,0.700,0.972
20050708,002745,791971,33.699880,-118.372162,18.647,33.470,0.711,1.015
20050708,002815,792001,33.700385,-118.373815,18.665,33.472,0.706,1.065
20050708,002845,792030,33.700890,-118.375453,18.704,33.460,0.728,1.090
20050708,002915,792060,33.701383,-118.377097,18.700,33.481,0.749,1.064
20050708,002945,792091,33.701911,-118.378798,18.714,33.473,0.744,1.122
20050708,003015,792121,33.702403,-118.380390,18.735,33.471,0.744,1.164
20050708,003045,792151,33.702901,-118.382028,18.756,33.471,0.760,1.126
20050708,003115,792181,33.703423,-118.383718,18.744,33.487,0.777,1.080
20050708,003145,792210,33.703915,-118.385308,18.797,33.453,0.782,1.112
20050708,003214,792240,33.704423,-118.386940,18.807,33.473,0.787,1.139
20050708,003245,792271,33.704925,-118.388583,18.785,33.489,0.798,1.159
20050708,003315,792301,33.705490,-118.390257,18.789,33.480,0.825,1.246
20050708,003345,792331,33.706061,-118.391805,18.835,33.460,0.842,1.277
20050708,003416,792362,33.706665,-118.393452,18.838,33.474,0.864,1.293
20050708,003445,792390,33.707225,-118.394990,18.868,33.464,0.825,1.244
20050708,003515,792421,33.707798,-118.396582,18.899,33.462,0.842,1.332
20050708,003545,792451,33.708381,-118.398180,18.934,33.457,0.842,1.229
20050708,003615,792481,33.708980,-118.399838,18.943,33.472,0.869,1.284
20050708,003645,792511,33.709550,-118.401393,18.969,33.462,0.842,1.249
20050708,003715,792540,33.710123,-118.403005,18.988,33.470,0.836,1.222
20050708,003745,792570,33.710726,-118.404680,18.960,33.490,0.842,1.219
20050708,003815,792601,33.711303,-118.406240,18.960,33.481,0.874,1.330
20050708,003845,792631,33.711908,-118.407897,18.937,33.495,0.901,1.376
20050708,003915,792661,33.712463,-118.409452,18.941,33.475,0.907,1.379
20050708,003945,792691,33.713053,-118.411062,19.014,33.440,0.912,1.430
20050708,004016,792722,33.713658,-118.412730,19.043,33.459,0.923,1.509
20050708,004045,792750,33.714221,-118.414287,19.036,33.474,0.917,1.432
20050708,004115,792781,33.714801,-118.415908,19.029,33.483,0.912,1.500
20050708,004145,792811,33.715385,-118.417535,18.991,33.504,0.907,1.442
20050708,004215,792841,33.715975,-118.419216,19.014,33.467,0.885,1.392
20050708,004245,792870,33.716545,-118.420795,18.969,33.512,0.880,1.477
20050708,004315,792900,33.717126,-118.422418,18.842,33.545,0.934,1.728
20050708,004345,792931,33.717726,-118.424081,18.909,33.451,0.885,1.599
20050708,004415,792961,33.718275,-118.425656,18.891,33.495,0.891,1.608
20050708,004445,792991,33.718875,-118.427293,18.932,33.461,0.831,1.448
20050708,004515,793021,33.719443,-118.428940,18.955,33.471,0.798,1.358
20050708,004545,793050,33.720050,-118.430636,18.911,33.509,0.809,1.392
20050708,004615,793080,33.720633,-118.432236,18.886,33.501,0.804,1.376
20050708,004645,793111,33.721248,-118.433928,18.890,33.485,0.804,1.368
20050708,004715,793141,33.721810,-118.435530,18.923,33.468,0.793,1.345
20050708,004746,793172,33.722421,-118.437231,18.936,33.475,0.782,1.315
20050708,004815,793201,33.722996,-118.438820,18.975,33.462,0.738,1.216
20050708,004845,793230,33.723591,-118.440446,19.006,33.466,0.722,1.175
20050708,004915,793261,33.724178,-118.442088,19.004,33.484,0.711,1.148
20050708,004945,793291,33.724778,-118.443726,19.022,33.477,0.700,1.097
20050708,005015,793321,33.725400,-118.445418,19.010,33.496,0.706,1.131
20050708,005045,793351,33.725986,-118.447010,19.012,33.487,0.700,1.125
20050708,005116,793382,33.726621,-118.448696,19.022,33.485,0.711,1.154
20050708,005145,793410,33.727211,-118.450285,19.050,33.472,0.700,1.115
20050708,005215,793441,33.727823,-118.451908,19.058,33.479,0.711,1.152
20050708,005245,793471,33.728453,-118.453586,19.079,33.475,0.711,1.146
20050708,005315,793501,33.729035,-118.455168,19.104,33.472,0.722,1.170
20050708,005345,793531,33.729636,-118.456806,19.128,33.473,0.717,1.160
20050708,005415,793560,33.730245,-118.458441,19.113,33.496,0.722,1.167
20050708,005445,793590,33.730858,-118.460085,19.131,33.481,0.717,1.160
20050708,005515,793621,33.731488,-118.461781,19.165,33.470,0.711,1.046
20050708,005545,793651,33.732073,-118.463351,19.166,33.485,0.706,1.138
20050708,005615,793681,33.732706,-118.465046,19.152,33.497,0.722,1.158
20050708,005645,793710,33.733300,-118.466640,19.139,33.499,0.700,1.114
20050708,005715,793740,33.733905,-118.468285,19.129,33.497,0.706,1.118
20050708,005745,793771,33.734530,-118.469923,19.125,33.496,0.678,1.061
20050708,005815,793801,33.735166,-118.471631,19.106,33.504,0.678,1.059
20050708,005845,793831,33.735771,-118.473225,19.083,33.509,0.673,1.046
20050708,005915,793861,33.736403,-118.474916,19.075,33.500,0.673,1.043
20050708,005945,793890,33.737001,-118.476516,19.062,33.501,0.662,1.020
20050708,010015,793920,33.737621,-118.478163,19.043,33.504,0.651,0.997
20050708,010045,793951,33.738240,-118.479791,19.028,33.406,0.651,0.991
20050708,010115,793981,33.738878,-118.481485,19.030,33.493,0.651,0.991
20050708,010145,794011,33.739468,-118.483075,19.041,33.487,0.656,0.999
20050708,010216,794042,33.740103,-118.484765,19.052,33.482,0.673,1.042
20050708,010245,794070,33.740698,-118.486336,19.051,33.491,0.673,1.041
20050708,010315,794100,33.741490,-118.487818,19.041,33.495,0.673,1.028
20050708,010345,794131,33.742718,-118.488871,19.059,33.481,0.678,1.017
20050708,010415,794161,33.744088,-118.489235,19.081,33.476,0.673,1.024
20050708,010445,794191,33.745585,-118.489298,19.066,33.495,0.667,0.948
20050708,010516,794222,33.747165,-118.489355,19.043,33.503,0.656,0.862
20050708,010545,794250,33.748636,-118.489415,19.037,33.497,0.640,0.824
20050708,010615,794281,33.750165,-118.489428,19.030,33.496,0.629,0.905
20050708,010645,794311,33.751696,-118.489440,19.010,33.504,0.596,0.869
20050708,010715,794341,33.753225,-118.489451,18.991,33.504,0.574,0.818
20050708,010745,794371,33.754748,-118.489466,18.971,33.508,0.585,0.773
20050708,010815,794400,33.756313,-118.489445,18.944,33.511,0.574,0.792
20050708,010845,794430,33.757775,-118.489426,18.917,33.512,0.574,0.722
20050708,010915,794461,33.759278,-118.489401,18.881,33.519,0.607,0.778
20050708,010945,794491,33.760773,-118.489371,18.847,33.513,0.624,0.742
20050708,011015,794521,33.762268,-118.489365,18.906,33.460,0.635,0.777
20050708,011045,794551,33.763798,-118.489341,18.978,33.443,0.635,0.783
20050708,011115,794580,33.765230,-118.489318,19.043,33.438,0.624,0.843
20050708,011145,794611,33.766703,-118.489310,19.126,33.430,0.629,0.805
20050708,011215,794641,33.768181,-118.489283,19.161,33.458,0.596,0.841
20050708,011245,794671,33.769706,-118.489266,19.204,33.455,0.569,0.789
20050708,011315,794701,33.771136,-118.489256,19.264,33.446,0.591,0.797
20050708,011345,794730,33.772661,-118.489233,19.299,33.458,0.618,0.847
20050708,011415,794760,33.774076,-118.489205,19.318,33.470,0.624,0.864
20050708,011445,794791,33.775540,-118.489206,19.347,33.470,0.656,0.984
20050708,011516,794821,33.777055,-118.489168,19.386,33.467,0.651,0.968
20050708,011545,794851,33.778463,-118.489165,19.373,33.491,0.673,0.984
20050708,011615,794881,33.779928,-118.489141,19.380,33.487,0.695,1.059
20050708,011646,794912,33.781448,-118.489090,19.383,33.490,0.689,1.052
20050708,011715,794940,33.782861,-118.489080,19.371,33.500,0.678,1.027
20050708,011746,794971,33.784371,-118.489063,19.331,33.515,0.684,1.027
20050708,011816,795001,33.785836,-118.489028,19.274,33.530,0.689,0.960
20050708,011845,795031,33.787246,-118.489008,19.234,33.522,0.695,1.034
20050708,011916,795062,33.788745,-118.488980,19.226,33.508,0.689,1.021
20050708,011946,795092,33.790201,-118.488970,19.199,33.507,0.678,0.981
20050708,012015,795121,33.791608,-118.488931,19.191,33.508,0.673,0.993
20050708,012046,795151,33.793121,-118.488908,19.202,33.495,0.667,0.994
20050708,012115,795181,33.794526,-118.488883,19.227,33.482,0.678,1.012
20050708,012146,795212,33.796050,-118.488865,19.247,33.485,0.678,0.954
20050708,012216,795242,33.797521,-118.488836,19.235,33.502,0.667,0.961
20050708,012246,795272,33.798986,-118.488816,19.219,33.509,0.640,0.921
20050708,012315,795301,33.800458,-118.488778,19.168,33.528,0.635,0.909
20050708,012345,795331,33.801871,-118.488755,19.120,33.535,0.662,0.965
20050708,012416,795361,33.803395,-118.488743,19.066,33.531,0.667,0.965
20050708,012445,795391,33.804818,-118.488715,19.052,33.515,0.656,0.949
20050708,012515,795420,33.806333,-118.488681,19.069,33.496,0.656,0.957
20050708,012546,795452,33.807803,-118.488631,19.073,33.497,0.640,0.924
20050708,012615,795481,33.809273,-118.488608,19.075,33.497,0.629,0.853
20050708,012646,795511,33.810741,-118.488556,19.100,33.482,0.618,0.865
20050708,012716,795542,33.812208,-118.488505,19.098,33.496,0.613,0.861
20050708,012745,795570,33.813673,-118.488476,19.098,33.497,0.607,0.848
20050708,012816,795602,33.815138,-118.488408,19.081,33.508,0.591,0.811
20050708,012846,795632,33.816590,-118.488345,19.066,33.508,0.602,0.830
20050708,012916,795661,33.818050,-118.488270,19.053,33.508,0.569,0.763
20050708,012946,795691,33.819508,-118.488231,19.043,33.507,0.552,0.736
20050708,013016,795722,33.820963,-118.488158,19.037,33.501,0.558,0.746
20050708,013045,795750,33.822425,-118.488081,19.024,33.508,0.585,0.797
20050708,013116,795782,33.823870,-118.488015,18.973,33.523,0.629,0.882
20050708,013146,795812,33.825325,-118.487931,18.974,33.507,0.646,0.916
20050708,013216,795841,33.826770,-118.487843,18.938,33.520,0.662,0.944
20050708,013246,795872,33.828218,-118.487776,18.883,33.531,0.706,1.028
20050708,013316,795902,33.829666,-118.487690,18.955,33.467,0.678,0.958
20050708,013346,795932,33.831108,-118.487590,18.974,33.483,0.673,0.935
20050708,013416,795962,33.832543,-118.487505,18.959,33.498,0.667,0.945
20050708,013446,795991,33.834038,-118.487418,19.003,33.471,0.689,0.988
20050708,013516,796021,33.835478,-118.487353,19.006,33.488,0.684,0.976
20050708,013546,796052,33.836873,-118.487275,18.964,33.520,0.749,1.108
20050708,013616,796082,33.838321,-118.487185,18.926,33.515,0.820,1.262
20050708,013646,796112,33.839763,-118.487125,18.919,33.508,0.917,1.475
20050708,013716,796142,33.841260,-118.487070,18.892,33.516,0.923,1.481
20050708,013746,796171,33.842651,-118.486983,18.900,33.493,1.015,1.695
20050708,013816,796201,33.844098,-118.486933,18.885,33.511,1.053,1.791
20050708,013846,796232,33.845543,-118.486850,18.835,33.531,1.150,2.032
20050708,013916,796262,33.846993,-118.486776,18.797,33.527,1.198,2.151
20050708,013946,796292,33.848435,-118.486720,18.722,33.551,1.289,2.378
20050708,014016,796321,33.849886,-118.486643,18.619,33.576,1.273,2.339
20050708,014046,796351,33.851345,-118.486565,18.531,33.560,1.321,2.470
20050708,014116,796382,33.852791,-118.486495,18.492,33.531,1.439,2.786
20050708,014146,796412,33.854248,-118.486421,18.396,33.556,1.594,3.219
20050708,014216,796442,33.855748,-118.486341,18.344,33.534,1.727,3.611
20050708,014246,796472,33.857198,-118.486258,18.330,33.509,2.023,4.534
20050708,014316,796501,33.858601,-118.486176,18.301,33.511,2.145,4.932
20050708,014346,796531,33.860095,-118.486090,18.316,33.482,2.287,5.415
20050708,014416,796562,33.861500,-118.486016,18.324,33.487,2.171,5.014
20050708,014446,796592,33.862915,-118.485703,18.294,33.502,2.245,5.114
20050708,014516,796622,33.863995,-118.484498,18.274,33.501,2.050,4.546
20050708,014546,796652,33.864983,-118.483221,18.243,33.506,1.854,3.917
20050708,014617,796683,33.866025,-118.481876,18.197,33.514,1.843,3.879
20050708,014646,796711,33.867018,-118.480553,18.167,33.509,1.854,3.907
20050708,014716,796742,33.867965,-118.479280,18.134,33.510,2.066,4.561
20050708,014746,796772,33.868831,-118.478113,18.097,33.511,2.250,5.158
20050708,014816,796802,33.869718,-118.476916,18.070,33.510,2.261,5.186
20050708,014846,796831,33.870640,-118.475686,18.038,33.511,2.440,5.787
20050708,014916,796861,33.871495,-118.474541,18.008,33.507,2.723,6.776
20050708,014946,796892,33.872416,-118.473333,18.011,33.488,2.676,6.597
20050708,015016,796922,33.873275,-118.472185,18.050,33.463,2.234,5.035
20050708,015046,796952,33.874081,-118.470918,18.125,33.437,2.261,5.124
20050708,015116,796982,33.874890,-118.469668,18.166,33.449,2.308,5.019
20050708,015146,797011,33.875696,-118.468420,18.210,33.444,2.034,4.190
20050708,015216,797041,33.876498,-118.467171,18.388,33.390,2.102,4.578
20050708,015246,797072,33.877346,-118.465890,18.604,33.350,2.055,4.015
20050708,015316,797102,33.878138,-118.464701,18.802,33.333,2.890,7.102
20050708,015346,797132,33.879000,-118.463423,19.025,33.338,3.381,8.088
20050708,015416,797162,33.879806,-118.462188,19.254,33.329,3.936,11.390
20050708,015446,797191,33.880493,-118.460908,19.457,33.343,4.190,12.512
20050708,015516,797222,33.881258,-118.459563,19.602,33.377,4.123,12.194
20050708,015546,797252,33.881966,-118.458298,19.717,33.414,4.050,11.854
20050708,015616,797282,33.882675,-118.456916,19.758,33.458,4.252,12.692
20050708,015646,797312,33.883263,-118.455548,19.784,33.475,4.768,14.970
20050708,015716,797341,33.883873,-118.454283,19.806,33.485,5.292,17.452
20050708,015746,797371,33.884385,-118.453126,19.839,33.481,5.590,18.870
20050708,015816,797402,33.884815,-118.452083,19.887,33.473,5.600,18.878
20050708,015846,797432,33.885305,-118.451061,19.965,33.456,6.245,22.175
20050708,015916,797462,33.885751,-118.450081,20.050,33.445,6.480,23.368
20050708,015946,797492,33.886138,-118.449216,20.109,33.462,6.516,23.531
20050708,020016,797521,33.886541,-118.448361,20.145,33.466,6.796,25.024
20050708,020047,797553,33.886940,-118.447480,20.184,33.474,7.305,27.798
20050708,020116,797582,33.887310,-118.446660,20.227,33.445,7.300,27.666
20050708,020146,797612,33.887700,-118.445820,20.261,33.422,7.305,27.616
20050708,020217,797643,33.888076,-118.444943,20.300,33.430,7.493,28.568
20050708,020246,797671,33.888361,-118.444093,20.324,33.445,7.909,30.802
20050708,020316,797701,33.888681,-118.443218,20.330,33.463,8.163,32.303
20050708,020347,797733,33.889011,-118.442296,20.329,33.462,8.026,31.450
20050708,020416,797762,33.889318,-118.441470,20.298,33.489,7.853,30.412
20050708,020446,797792,33.889586,-118.440843,20.293,33.494,7.985,31.221
20050708,020517,797823,33.889843,-118.440610,20.311,33.498,8.107,31.362
20050708,020546,797851,33.889975,-118.440626,20.316,33.505,8.345,33.774
20050708,020616,797881,33.890010,-118.440675,20.310,33.497,8.451,33.720
20050708,020646,797912,33.890035,-118.440711,20.310,33.485,8.659,35.584
20050708,020716,797942,33.890025,-118.440770,20.301,33.487,8.598,35.055
20050708,020746,797972,33.890001,-118.440870,20.293,33.493,8.725,35.842
20050708,020816,798002,33.889955,-118.440971,20.289,33.504,8.401,33.797
20050708,020846,798031,33.889913,-118.441038,20.285,33.507,8.487,34.243
20050708,020916,798061,33.889893,-118.441091,20.281,33.510,8.254,32.820
20050708,020946,798092,33.889886,-118.441125,20.271,33.513,8.274,32.895
20050708,021016,798122,33.889910,-118.441131,20.263,33.509,8.330,33.101
20050708,021046,798152,33.889936,-118.441126,20.254,33.517,7.960,30.759
20050708,021116,798181,33.889961,-118.441115,20.249,33.515,7.970,30.710
20050708,021147,798213,33.889990,-118.441100,20.246,33.517,7.711,29.052
20050708,021216,798242,33.890015,-118.441088,20.243,33.515,7.823,29.670
20050708,021246,798272,33.890036,-118.441096,20.243,33.514,7.716,29.029
20050708,021316,798302,33.890041,-118.441130,20.249,33.510,7.681,28.569
20050708,021346,798332,33.890030,-118.441193,20.251,33.512,7.716,28.402
20050708,021416,798361,33.889998,-118.441275,20.251,33.513,7.934,30.052
20050708,021446,798391,33.889973,-118.441353,20.253,33.513,7.798,29.285
20050708,021516,798422,33.889953,-118.441443,20.255,33.513,7.945,30.105
20050708,021546,798452,33.889941,-118.441518,20.264,33.506,7.782,29.154
20050708,021616,798482,33.889961,-118.441581,20.272,33.507,7.838,29.374
20050708,021646,798512,33.889945,-118.441626,20.278,33.509,7.843,29.346
20050708,021716,798541,33.889951,-118.441661,20.279,33.513,8.249,31.596
20050708,021747,798573,33.889956,-118.441690,20.279,33.515,8.066,30.478
20050708,021816,798602,33.889963,-118.441710,20.276,33.514,7.843,29.188
20050708,021847,798632,33.889980,-118.441718,20.272,33.515,7.732,28.457
20050708,021916,798662,33.889996,-118.441723,20.268,33.517,7.803,28.717
20050708,021946,798691,33.890013,-118.441723,20.266,33.515,7.747,28.362
20050708,022016,798721,33.890030,-118.441723,20.267,33.515,7.762,28.344
20050708,022046,798752,33.890051,-118.441720,20.268,33.515,7.452,26.506
20050708,022117,798782,33.890061,-118.441718,20.268,33.515,7.569,27.118
20050708,022146,798812,33.890066,-118.441716,20.268,33.514,7.686,27.711
20050708,022216,798842,33.890058,-118.441715,20.270,33.515,7.595,27.216
20050708,022246,798871,33.890046,-118.441720,20.268,33.515,7.595,27.185
20050708,022316,798901,33.890023,-118.441716,20.269,33.514,7.554,26.892
20050708,022346,798932,33.890000,-118.441708,20.268,33.515,7.279,25.371
20050708,022416,798962,33.889948,-118.441681,20.270,33.513,7.315,25.452
20050708,022446,798992,33.889870,-118.441683,20.271,33.505,7.320,25.399
20050708,022516,799021,33.889703,-118.441780,20.272,33.515,7.630,26.973
20050708,022546,799051,33.889568,-118.441980,20.271,33.508,7.726,27.464
20050708,022616,799082,33.889441,-118.442283,20.270,33.515,7.447,25.927
20050708,022646,799112,33.889293,-118.442653,20.266,33.518,7.696,27.109
20050708,022716,799142,33.889133,-118.442998,20.267,33.515,7.615,26.513
20050708,022746,799172,33.888971,-118.443265,20.266,33.514,7.726,26.932
20050708,022816,799201,33.888806,-118.443500,20.264,33.514,7.422,25.335
20050708,022846,799231,33.888653,-118.443755,20.263,33.514,7.564,26.066
20050708,022916,799262,33.888506,-118.444021,20.254,33.520,7.869,27.634
20050708,022946,799292,33.888355,-118.444250,20.242,33.518,7.584,26.111
20050708,023016,799322,33.888215,-118.444393,20.232,33.516,7.671,26.049
20050708,023046,799352,33.888065,-118.444533,20.237,33.514,7.569,25.194
20050708,023116,799381,33.887896,-118.444736,20.233,33.514,7.590,25.642
20050708,023146,799411,33.887730,-118.445003,20.225,33.515,7.442,25.019
20050708,023216,799442,33.887575,-118.445283,20.220,33.515,7.188,23.740
20050708,023246,799472,33.887381,-118.445576,20.220,33.512,7.208,23.787
20050708,023316,799502,33.887223,-118.445836,20.220,33.511,7.219,23.804
20050708,023347,799533,33.887060,-118.446050,20.221,33.509,6.786,21.622
20050708,023416,799561,33.886906,-118.446195,20.221,33.512,6.821,21.760
20050708,023447,799593,33.886735,-118.446328,20.224,33.508,7.086,22.950
20050708,023516,799622,33.886593,-118.446483,20.232,33.506,7.071,22.832
20050708,023546,799652,33.886463,-118.446663,20.243,33.501,6.979,22.269
20050708,023616,799682,33.886333,-118.446858,20.251,33.505,7.040,22.250
20050708,023646,799711,33.886215,-118.447045,20.252,33.507,6.826,21.351
20050708,023717,799743,33.886066,-118.447235,20.253,33.509,6.908,21.709
20050708,023746,799772,33.885923,-118.447416,20.253,33.509,7.066,22.447
20050708,023816,799802,33.885775,-118.447615,20.251,33.510,7.396,23.896
20050708,023846,799832,33.885628,-118.447815,20.245,33.511,7.198,22.934
20050708,023916,799862,33.885468,-118.447990,20.240,33.512,6.934,21.699
20050708,023946,799891,33.885311,-118.448155,20.231,33.514,7.122,22.580
20050708,024016,799922,33.885146,-118.448343,20.218,33.507,6.801,21.035
20050708,024046,799952,33.885003,-118.448525,20.205,33.516,6.679,20.450
20050708,024116,799982,33.884855,-118.448710,20.190,33.518,6.633,20.206
20050708,024146,800012,33.884681,-118.448921,20.185,33.518,6.265,18.493
20050708,024216,800041,33.884523,-118.449080,20.191,33.510,6.127,17.864
20050708,024246,800071,33.884405,-118.449196,20.194,33.511,6.235,18.300
20050708,024316,800102,33.884226,-118.449395,20.193,33.512,6.214,18.194
20050708,024346,800132,33.884035,-118.449615,20.181,33.519,6.148,17.848
20050708,024416,800162,33.883818,-118.449861,20.172,33.517,6.306,18.499
20050708,024446,800192,33.883598,-118.450135,20.165,33.515,6.388,18.822
20050708,024516,800221,33.883400,-118.450413,20.159,33.516,6.362,18.670